| time (UTC) | temp F | wind direction | speed MPH | gust MPH | rain 1hr in | rain 24hr in | rain mn in | humidity % | barometer mb |
| 20260506091331 | 65 | 174 | 0.0 | 0.0 | 0.00 | 0.00 | 0.00 | 65 | 1007.9 |
| 20260506090218 | 65 | 265 | 0.0 | 4.0 | 0.00 | 0.00 | 0.00 | 64 | 1007.9 |
| 20260506085042 | 65 | 207 | 0.0 | 0.0 | 0.00 | 0.00 | 0.00 | 64 | 1008.0 |
| 20260506084548 | 65 | 194 | 0.0 | 1.0 | 0.00 | 0.00 | 0.00 | 64 | 1008.1 |
| 20260506083413 | 65 | 237 | 0.0 | 1.0 | 0.00 | 0.00 | 0.00 | 63 | 1008.1 |
| 20260506082904 | 66 | 225 | 0.0 | 10.0 | 0.00 | 0.00 | 0.00 | 63 | 1008.2 |
| 20260506082411 | 66 | 214 | 0.0 | 10.0 | 0.00 | 0.00 | 0.00 | 63 | 1008.3 |
| 20260506081903 | 66 | 185 | 0.0 | 9.0 | 0.00 | 0.00 | 0.00 | 63 | 1008.2 |
| 20260506081405 | 66 | 161 | 0.0 | 1.0 | 0.00 | 0.00 | 0.00 | 63 | 1008.2 |
| 20260506080913 | 66 | 233 | 0.0 | 3.0 | 0.00 | 0.00 | 0.00 | 63 | 1008.2 |
| 20260506080357 | 66 | 230 | 0.0 | 1.0 | 0.00 | 0.00 | 0.00 | 62 | 1008.2 |
| 20260506073301 | 66 | 221 | 0.0 | 6.0 | 0.00 | 0.00 | 0.00 | 61 | 1008.2 |
| 20260506072746 | 66 | 194 | 0.0 | 3.0 | 0.00 | 0.00 | 0.00 | 60 | 1008.1 |
| 20260506072249 | 66 | 204 | 0.0 | 1.0 | 0.00 | 0.00 | 0.00 | 60 | 1008.3 |
| 20260506071730 | 66 | 225 | 0.0 | 2.0 | 0.00 | 0.00 | 0.00 | 60 | 1008.2 |
| 20260506070620 | 67 | 238 | 0.0 | 1.0 | 0.00 | 0.00 | 0.00 | 59 | 1008.3 |
| 20260506070114 | 67 | 211 | 0.0 | 0.0 | 0.00 | 0.00 | 0.00 | 59 | 1008.2 |
| 20260506062045 | 67 | 220 | 0.0 | 0.0 | 0.00 | 0.00 | 0.00 | 58 | 1008.8 |
| 20260506061553 | 67 | 218 | 0.0 | 1.0 | 0.00 | 0.00 | 0.00 | 57 | 1008.9 |
| 20260506061047 | 67 | 236 | 0.0 | 1.0 | 0.00 | 0.00 | 0.00 | 57 | 1008.9 |
| 20260506060535 | 67 | 191 | 0.0 | 0.0 | 0.00 | 0.00 | 0.00 | 57 | 1009.0 |
| 20260506051006 | 67 | 200 | 0.0 | 0.0 | 0.00 | 0.00 | 0.00 | 54 | 1009.4 |
| 20260506050511 | 67 | 186 | 0.0 | 0.0 | 0.00 | 0.00 | 0.00 | 53 | 1009.5 |
| 20260506044812 | 67 | 186 | 0.0 | 0.0 | 0.00 | 0.00 | 0.00 | 52 | 1009.6 |
| 20260506044259 | 67 | 208 | 0.0 | 2.0 | 0.00 | 0.00 | 0.00 | 51 | 1009.6 |
| 20260506043139 | 67 | 188 | 0.0 | 0.0 | 0.00 | 0.00 | 0.00 | 50 | 1009.6 |
| 20260506042042 | 67 | 174 | 0.0 | 0.0 | 0.00 | 0.00 | 0.00 | 50 | 1009.5 |
| 20260506041524 | 67 | 174 | 0.0 | 0.0 | 0.00 | 0.00 | 0.00 | 50 | 1009.5 |
| 20260506041005 | 67 | 174 | 0.0 | 0.0 | 0.00 | 0.00 | 0.00 | 50 | 1009.6 |
| 20260506040454 | 67 | 175 | 0.0 | 0.0 | 0.00 | 0.00 | 0.00 | 49 | 1009.5 |
| 20260506035939 | 68 | 175 | 0.0 | 0.0 | 0.00 | 0.00 | 0.00 | 49 | 1009.5 |
| 20260506035427 | 68 | 175 | 0.0 | 0.0 | 0.00 | 0.00 | 0.00 | 48 | 1009.5 |
| 20260506034909 | 68 | 175 | 0.0 | 0.0 | 0.00 | 0.00 | 0.00 | 48 | 1009.5 |
| 20260506034417 | 68 | 175 | 0.0 | 0.0 | 0.00 | 0.00 | 0.00 | 47 | 1009.4 |
| 20260506033859 | 68 | 175 | 0.0 | 0.0 | 0.00 | 0.00 | 0.00 | 47 | 1009.5 |
| 20260506033345 | 68 | 175 | 0.0 | 0.0 | 0.00 | 0.00 | 0.00 | 46 | 1009.5 |
| 20260506032828 | 68 | 172 | 0.0 | 0.0 | 0.00 | 0.00 | 0.00 | 47 | 1009.4 |
| 20260506032316 | 68 | 170 | 0.0 | 0.0 | 0.00 | 0.00 | 0.00 | 47 | 1009.4 |
| 20260506031822 | 68 | 224 | 0.0 | 0.0 | 0.00 | 0.00 | 0.00 | 47 | 1009.3 |
| 20260506031317 | 69 | 128 | 0.0 | 0.0 | 0.00 | 0.00 | 0.00 | 47 | 1009.3 |
| 20260506030152 | 69 | 121 | 0.0 | 0.0 | 0.00 | 0.00 | 0.00 | 46 | 1009.3 |
| 20260506025030 | 69 | 248 | 0.0 | 0.0 | 0.00 | 0.00 | 0.00 | 45 | 1009.5 |
| 20260506024530 | 69 | 250 | 0.0 | 0.0 | 0.00 | 0.00 | 0.00 | 45 | 1009.4 |
| 20260506024032 | 69 | 250 | 0.0 | 0.0 | 0.00 | 0.00 | 0.00 | 44 | 1009.4 |
| 20260506023514 | 69 | 250 | 0.0 | 0.0 | 0.00 | 0.00 | 0.00 | 44 | 1009.4 |
| 20260506022959 | 69 | 250 | 0.0 | 1.0 | 0.00 | 0.00 | 0.00 | 43 | 1009.4 |
| 20260506022457 | 70 | 180 | 0.0 | 0.0 | 0.00 | 0.00 | 0.00 | 43 | 1009.4 |
| 20260506021946 | 70 | 178 | 0.0 | 0.0 | 0.00 | 0.00 | 0.00 | 43 | 1009.4 |
| 20260506021443 | 70 | 201 | 0.0 | 0.0 | 0.00 | 0.00 | 0.00 | 42 | 1009.4 |
| 20260506020315 | 70 | 239 | 0.0 | 0.0 | 0.00 | 0.00 | 0.00 | 41 | 1009.5 |
| 20260506015814 | 71 | 239 | 0.0 | 0.0 | 0.00 | 0.00 | 0.00 | 40 | 1009.5 |
| 20260506015311 | 71 | 240 | 0.0 | 0.0 | 0.00 | 0.00 | 0.00 | 40 | 1009.4 |
| 20260506014806 | 71 | 244 | 0.0 | 0.0 | 0.00 | 0.00 | 0.00 | 40 | 1009.3 |
| 20260506014301 | 71 | 243 | 0.0 | 0.0 | 0.00 | 0.00 | 0.00 | 39 | 1009.3 |
| 20260506013759 | 71 | 236 | 0.0 | 0.0 | 0.00 | 0.00 | 0.00 | 38 | 1009.2 |
| 20260506013251 | 71 | 207 | 0.0 | 0.0 | 0.00 | 0.00 | 0.00 | 38 | 1009.2 |
| 20260506012747 | 71 | 204 | 0.0 | 1.0 | 0.00 | 0.00 | 0.00 | 38 | 1009.1 |
| 20260506012253 | 72 | 202 | 0.0 | 1.0 | 0.00 | 0.00 | 0.00 | 37 | 1009.0 |
| 20260506011802 | 72 | 247 | 0.0 | 1.0 | 0.00 | 0.00 | 0.00 | 36 | 1009.0 |
| 20260506011243 | 72 | 248 | 0.0 | 1.0 | 0.00 | 0.00 | 0.00 | 37 | 1008.9 |
| 20260506010739 | 72 | 211 | 0.0 | 0.0 | 0.00 | 0.00 | 0.00 | 36 | 1008.9 |
| 20260506010248 | 73 | 212 | 0.0 | 0.0 | 0.00 | 0.00 | 0.00 | 36 | 1008.8 |
| 20260506005751 | 73 | 213 | 0.0 | 1.0 | 0.00 | 0.00 | 0.00 | 36 | 1008.8 |
| 20260506005251 | 73 | 251 | 0.0 | 0.0 | 0.00 | 0.00 | 0.00 | 35 | 1008.8 |
| 20260506004749 | 73 | 219 | 0.0 | 5.0 | 0.00 | 0.00 | 0.00 | 35 | 1008.8 |
| 20260506004240 | 73 | 175 | 0.0 | 5.0 | 0.00 | 0.00 | 0.00 | 35 | 1008.7 |
| 20260506003731 | 73 | 214 | 0.0 | 0.0 | 0.00 | 0.00 | 0.00 | 35 | 1008.6 |
| 20260506003235 | 73 | 226 | 0.0 | 1.0 | 0.00 | 0.00 | 0.00 | 35 | 1008.5 |
| 20260506002049 | 74 | 222 | 0.0 | 8.0 | 0.00 | 0.00 | 0.00 | 35 | 1008.4 |
| 20260506001531 | 74 | 228 | 0.0 | 3.0 | 0.00 | 0.00 | 0.00 | 36 | 1008.4 |
| 20260506001012 | 74 | 79 | 0.0 | 3.0 | 0.00 | 0.00 | 0.00 | 35 | 1008.2 |
| 20260506000509 | 75 | 207 | 0.0 | 3.0 | 0.00 | 0.00 | 0.00 | 34 | 1008.3 |
| 20260505235957 | 75 | 218 | 0.0 | 1.0 | 0.00 | 0.00 | 0.00 | 35 | 1008.2 |
| 20260505234849 | 75 | 225 | 0.0 | 4.0 | 0.00 | 0.00 | 0.00 | 35 | 1008.2 |
| 20260505234345 | 76 | 216 | 0.0 | 4.0 | 0.00 | 0.00 | 0.00 | 34 | 1008.2 |
| 20260505233850 | 76 | 178 | 0.0 | 4.0 | 0.00 | 0.00 | 0.00 | 35 | 1008.1 |
| 20260505233332 | 76 | 196 | 0.0 | 1.0 | 0.00 | 0.00 | 0.00 | 35 | 1008.2 |
| 20260505232817 | 76 | 197 | 0.0 | 1.0 | 0.00 | 0.00 | 0.00 | 34 | 1008.1 |
| 20260505232322 | 76 | 244 | 0.0 | 2.0 | 0.00 | 0.00 | 0.00 | 35 | 1008.2 |
| 20260505231810 | 77 | 228 | 0.0 | 2.0 | 0.00 | 0.00 | 0.00 | 34 | 1008.2 |
| 20260505231304 | 77 | 211 | 0.0 | 0.0 | 0.00 | 0.00 | 0.00 | 34 | 1008.1 |
| 20260505230749 | 77 | 210 | 0.0 | 8.0 | 0.00 | 0.00 | 0.00 | 34 | 1008.0 |
| 20260505230236 | 77 | 151 | 0.0 | 5.0 | 0.00 | 0.00 | 0.00 | 33 | 1008.1 |
| 20260505225723 | 78 | 173 | 0.0 | 8.0 | 0.00 | 0.00 | 0.00 | 33 | 1008.0 |
| 20260505225229 | 78 | 221 | 0.0 | 8.0 | 0.00 | 0.00 | 0.00 | 32 | 1008.0 |
| 20260505224110 | 78 | 222 | 0.0 | 8.0 | 0.00 | 0.00 | 0.00 | 33 | 1008.1 |
| 20260505222329 | 78 | 142 | 0.0 | 7.0 | 0.00 | 0.00 | 0.00 | 34 | 1008.3 |
| 20260505221819 | 78 | 221 | 0.0 | 7.0 | 0.00 | 0.00 | 0.00 | 33 | 1008.2 |
| 20260505221323 | 78 | 217 | 0.0 | 6.0 | 0.00 | 0.00 | 0.00 | 33 | 1008.2 |
| 20260505220831 | 78 | 213 | 1.0 | 9.0 | 0.00 | 0.00 | 0.00 | 32 | 1008.2 |
| 20260505220313 | 78 | 228 | 0.0 | 9.0 | 0.00 | 0.00 | 0.00 | 33 | 1008.3 |
| 20260505215820 | 79 | 207 | 0.0 | 9.0 | 0.00 | 0.00 | 0.00 | 32 | 1008.2 |
| 20260505215330 | 79 | 181 | 0.0 | 9.0 | 0.00 | 0.00 | 0.00 | 34 | 1008.2 |
| 20260505214831 | 78 | 129 | 0.0 | 1.0 | 0.00 | 0.00 | 0.00 | 35 | 1008.2 |
| 20260505214323 | 78 | 236 | 0.0 | 2.0 | 0.00 | 0.00 | 0.00 | 34 | 1008.2 |
| 20260505213812 | 78 | 244 | 0.0 | 1.0 | 0.00 | 0.00 | 0.00 | 35 | 1008.2 |
| 20260505213315 | 78 | 217 | 0.0 | 9.0 | 0.00 | 0.00 | 0.00 | 35 | 1008.1 |
| 20260505212759 | 78 | 209 | 0.0 | 11.0 | 0.00 | 0.00 | 0.00 | 34 | 1008.1 |
| 20260505212308 | 79 | 158 | 1.0 | 11.0 | 0.00 | 0.00 | 0.00 | 35 | 1008.2 |
| 20260505211814 | 79 | 222 | 1.0 | 11.0 | 0.00 | 0.00 | 0.00 | 34 | 1008.1 |
| 20260505211321 | 79 | 234 | 1.0 | 11.0 | 0.00 | 0.00 | 0.00 | 35 | 1008.1 |
| 20260505210802 | 80 | 252 | 1.0 | 8.0 | 0.00 | 0.00 | 0.00 | 36 | 1008.0 |
| 20260505205643 | 80 | 201 | 1.0 | 13.0 | 0.00 | 0.00 | 0.00 | 35 | 1008.0 |
| 20260505205126 | 80 | 169 | 1.0 | 13.0 | 0.00 | 0.00 | 0.00 | 34 | 1007.9 |
| 20260505204624 | 80 | 208 | 1.0 | 13.0 | 0.00 | 0.00 | 0.00 | 36 | 1008.0 |
| 20260505204105 | 81 | 188 | 1.0 | 13.0 | 0.00 | 0.00 | 0.00 | 36 | 1008.0 |
| 20260505203558 | 81 | 248 | 0.0 | 10.0 | 0.00 | 0.00 | 0.00 | 36 | 1007.9 |
| 20260505203100 | 81 | 213 | 0.0 | 7.0 | 0.00 | 0.00 | 0.00 | 35 | 1007.8 |
| 20260505201930 | 81 | 196 | 1.0 | 9.0 | 0.00 | 0.00 | 0.00 | 35 | 1007.9 |
| 20260505201420 | 81 | 160 | 0.0 | 9.0 | 0.00 | 0.00 | 0.00 | 35 | 1008.0 |
| 20260505200913 | 80 | 236 | 0.0 | 9.0 | 0.00 | 0.00 | 0.00 | 37 | 1007.9 |
| 20260505200412 | 80 | 140 | 1.0 | 9.0 | 0.00 | 0.00 | 0.00 | 37 | 1007.9 |
| 20260505195909 | 80 | 212 | 0.0 | 9.0 | 0.00 | 0.00 | 0.00 | 37 | 1008.0 |
| 20260505195401 | 80 | 205 | 0.0 | 6.0 | 0.00 | 0.00 | 0.00 | 35 | 1008.1 |
| 20260505194854 | 80 | 194 | 0.0 | 6.0 | 0.00 | 0.00 | 0.00 | 37 | 1008.1 |
| 20260505194349 | 80 | 190 | 1.0 | 7.0 | 0.00 | 0.00 | 0.00 | 37 | 1008.1 |
| 20260505193848 | 81 | 202 | 0.0 | 7.0 | 0.00 | 0.00 | 0.00 | 37 | 1008.3 |
| 20260505193354 | 81 | 207 | 0.0 | 7.0 | 0.00 | 0.00 | 0.00 | 37 | 1008.2 |
| 20260505192846 | 80 | 143 | 1.0 | 7.0 | 0.00 | 0.00 | 0.00 | 36 | 1008.3 |
| 20260505192332 | 80 | 234 | 1.0 | 14.0 | 0.00 | 0.00 | 0.00 | 37 | 1008.4 |
| 20260505191831 | 81 | 218 | 0.0 | 14.0 | 0.00 | 0.00 | 0.00 | 38 | 1008.5 |
| 20260505191311 | 80 | 157 | 0.0 | 14.0 | 0.00 | 0.00 | 0.00 | 39 | 1008.5 |
| 20260505190123 | 80 | 122 | 0.0 | 7.0 | 0.00 | 0.00 | 0.00 | 37 | 1008.9 |
| 20260505185633 | 80 | 214 | 0.0 | 7.0 | 0.00 | 0.00 | 0.00 | 38 | 1008.9 |
| 20260505183858 | 80 | 227 | 0.0 | 8.0 | 0.00 | 0.00 | 0.00 | 38 | 1009.1 |
| 20260505183344 | 80 | 230 | 1.0 | 8.0 | 0.00 | 0.00 | 0.00 | 38 | 1009.1 |
| 20260505182846 | 80 | 232 | 0.0 | 5.0 | 0.00 | 0.00 | 0.00 | 38 | 1009.3 |
| 20260505181702 | 79 | 210 | 1.0 | 10.0 | 0.00 | 0.00 | 0.00 | 39 | 1009.4 |
| 20260505181202 | 79 | 178 | 1.0 | 10.0 | 0.00 | 0.00 | 0.00 | 38 | 1009.5 |
| 20260505180703 | 79 | 234 | 1.0 | 10.0 | 0.00 | 0.00 | 0.00 | 37 | 1009.5 |
| 20260505180206 | 79 | 146 | 0.0 | 8.0 | 0.00 | 0.00 | 0.00 | 40 | 1009.5 |
| 20260505175716 | 79 | 213 | 0.0 | 11.0 | 0.00 | 0.00 | 0.00 | 40 | 1009.6 |
| 20260505174614 | 79 | 243 | 0.0 | 11.0 | 0.00 | 0.00 | 0.00 | 39 | 1009.8 |
| 20260505174112 | 79 | 227 | 1.0 | 11.0 | 0.00 | 0.00 | 0.00 | 41 | 1009.8 |
| 20260505173618 | 79 | 163 | 1.0 | 8.0 | 0.00 | 0.00 | 0.00 | 38 | 1009.8 |
| 20260505173106 | 79 | 202 | 1.0 | 8.0 | 0.00 | 0.00 | 0.00 | 42 | 1009.8 |
| 20260505172609 | 79 | 232 | 0.0 | 7.0 | 0.00 | 0.00 | 0.00 | 39 | 1009.9 |
| 20260505172100 | 79 | 218 | 0.0 | 5.0 | 0.00 | 0.00 | 0.00 | 41 | 1009.9 |
| 20260505170928 | 78 | 207 | 0.0 | 0.0 | 0.00 | 0.00 | 0.00 | 42 | 1010.0 |
| 20260505170427 | 78 | 236 | 0.0 | 2.0 | 0.00 | 0.00 | 0.00 | 40 | 1010.0 |
| 20260505165922 | 78 | 219 | 0.0 | 3.0 | 0.00 | 0.00 | 0.00 | 39 | 1010.2 |
| 20260505165411 | 78 | 221 | 0.0 | 8.0 | 0.00 | 0.00 | 0.00 | 41 | 1010.3 |
| 20260505164913 | 78 | 249 | 1.0 | 9.0 | 0.00 | 0.00 | 0.00 | 38 | 1010.4 |
| 20260505163738 | 78 | 226 | 2.0 | 9.0 | 0.00 | 0.00 | 0.00 | 38 | 1010.6 |
| 20260505163229 | 78 | 244 | 1.0 | 14.0 | 0.00 | 0.00 | 0.00 | 41 | 1010.7 |
| 20260505162106 | 77 | 233 | 2.0 | 14.0 | 0.00 | 0.00 | 0.00 | 41 | 1010.8 |
| 20260505161605 | 77 | 221 | 2.0 | 14.0 | 0.00 | 0.00 | 0.00 | 43 | 1011.0 |
| 20260505161055 | 77 | 209 | 1.0 | 11.0 | 0.00 | 0.00 | 0.00 | 40 | 1010.9 |
| 20260505160602 | 77 | 237 | 1.0 | 11.0 | 0.00 | 0.00 | 0.00 | 42 | 1011.1 |
| 20260505153341 | 76 | 218 | 2.0 | 12.0 | 0.00 | 0.00 | 0.00 | 42 | 1011.2 |
| 20260505152847 | 76 | 238 | 2.0 | 12.0 | 0.00 | 0.00 | 0.00 | 41 | 1011.3 |
| 20260505152329 | 76 | 227 | 1.0 | 11.0 | 0.00 | 0.00 | 0.00 | 41 | 1011.3 |
| 20260505151831 | 76 | 219 | 3.0 | 11.0 | 0.00 | 0.00 | 0.00 | 45 | 1011.2 |
| 20260505151315 | 76 | 215 | 2.0 | 11.0 | 0.00 | 0.00 | 0.00 | 44 | 1011.2 |
| 20260505150823 | 75 | 245 | 0.0 | 8.0 | 0.00 | 0.00 | 0.00 | 46 | 1011.2 |
| 20260505150317 | 75 | 247 | 0.0 | 8.0 | 0.00 | 0.00 | 0.00 | 46 | 1011.2 |
| 20260505140454 | 69 | 232 | 0.0 | 1.0 | 0.00 | 0.00 | 0.00 | 60 | 1011.3 |
| 20260505124233 | 60 | 219 | 0.0 | 0.0 | 0.00 | 0.00 | 0.00 | 73 | 1012.0 |
| 20260505123728 | 59 | 219 | 0.0 | 0.0 | 0.00 | 0.00 | 0.00 | 75 | 1012.1 |
| 20260505123218 | 58 | 219 | 0.0 | 0.0 | 0.00 | 0.00 | 0.00 | 75 | 1012.2 |
| 20260505122722 | 58 | 218 | 0.0 | 0.0 | 0.00 | 0.00 | 0.00 | 75 | 1012.2 |
| 20260505121552 | 57 | 218 | 0.0 | 0.0 | 0.00 | 0.00 | 0.00 | 76 | 1012.1 |
| 20260505121050 | 57 | 219 | 0.0 | 0.0 | 0.00 | 0.00 | 0.00 | 75 | 1012.1 |
| 20260505120543 | 57 | 219 | 0.0 | 2.0 | 0.00 | 0.00 | 0.00 | 76 | 1012.1 |
| 20260505120052 | 56 | 221 | 0.0 | 2.0 | 0.00 | 0.00 | 0.00 | 77 | 1012.3 |
| 20260505115550 | 56 | 173 | 0.0 | 0.0 | 0.00 | 0.00 | 0.00 | 77 | 1012.2 |
| 20260505115030 | 56 | 141 | 0.0 | 0.0 | 0.00 | 0.00 | 0.00 | 78 | 1012.1 |
| 20260505114519 | 56 | 141 | 0.0 | 0.0 | 0.00 | 0.00 | 0.00 | 79 | 1012.1 |
| 20260505112702 | 55 | 142 | 0.0 | 0.0 | 0.00 | 0.00 | 0.00 | 80 | 1011.8 |
| 20260505112157 | 55 | 121 | 0.0 | 0.0 | 0.00 | 0.00 | 0.00 | 79 | 1011.7 |
| 20260505111707 | 55 | 121 | 0.0 | 0.0 | 0.00 | 0.00 | 0.00 | 79 | 1011.7 |
| 20260505101530 | 54 | 121 | 0.0 | 0.0 | 0.00 | 0.00 | 0.00 | 79 | 1011.0 |
| 20260505101024 | 54 | 121 | 0.0 | 0.0 | 0.00 | 0.00 | 0.00 | 79 | 1011.0 |
| 20260505100505 | 55 | 121 | 0.0 | 0.0 | 0.00 | 0.00 | 0.00 | 78 | 1010.9 |
| 20260505095958 | 55 | 121 | 0.0 | 0.0 | 0.00 | 0.00 | 0.00 | 78 | 1010.9 |
| 20260505095443 | 55 | 121 | 0.0 | 0.0 | 0.00 | 0.00 | 0.00 | 77 | 1011.0 |
| 20260505094334 | 55 | 121 | 0.0 | 0.0 | 0.00 | 0.00 | 0.00 | 77 | 1011.0 |
| 20260505093819 | 55 | 121 | 0.0 | 0.0 | 0.00 | 0.00 | 0.00 | 77 | 1010.9 |
| 20260505093302 | 55 | 121 | 0.0 | 0.0 | 0.00 | 0.00 | 0.00 | 77 | 1010.8 |
| 20260505092139 | 56 | 121 | 0.0 | 0.0 | 0.00 | 0.00 | 0.00 | 76 | 1010.9 |
| 20260505091621 | 56 | 121 | 0.0 | 0.0 | 0.00 | 0.00 | 0.00 | 76 | 1010.8 |